Location: Ferchesar
(52.6477°N, 12.4298°E)
Time: 16:04:53
(UTC+01:00)

Explorer 7 - Pass Details

Date: 13 December 2021
Orbit: 483 x 674 km, 50.3° (Epoch: 23 January)

Event Time Altitude Azimuth Distance (km) Brightness Sun altitude
Rises 08:30:49 0° 278° (W) 2,755 9.9 1.1°
Reaches altitude 10° 08:33:51 10° 256° (WSW) 1,811 9.2 1.5°
Maximum altitude 08:36:17 15° 220° (SW) 1,462 9.1 1.7°
Drops below altitude 10° 08:38:39 10° 183° (S) 1,743 10.1 2.0°
Sets 08:41:30 0° 160° (SSE) 2,593 11.6 2.3°
